TimeMST,TemperatureF,Dew PointF,Humidity,Sea Level PressureIn,VisibilityMPH,Wind Direction,Wind SpeedMPH,Gust SpeedMPH,PrecipitationIn,Events,Conditions,WindDirDegrees,DateUTC
12:51 AM,44.1,37.0,76,30.13,10.0,SE,8.1,-,N/A,,Clear,130,2012-12-04 07:51:00
1:51 AM,41.0,35.1,79,30.14,10.0,SSW,3.5,-,N/A,,Clear,200,2012-12-04 08:51:00
2:51 AM,43.0,37.0,80,30.13,10.0,Calm,Calm,-,N/A,,Clear,0,2012-12-04 09:51:00
3:51 AM,42.1,36.0,79,30.16,10.0,SW,4.6,-,N/A,,Clear,220,2012-12-04 10:51:00
4:51 AM,45.0,37.9,76,30.15,10.0,SE,6.9,-,N/A,,Clear,130,2012-12-04 11:51:00
5:51 AM,46.0,37.9,73,30.17,10.0,ESE,5.8,-,N/A,,Clear,120,2012-12-04 12:51:00
6:51 AM,41.0,36.0,82,30.20,10.0,Calm,Calm,-,N/A,,Clear,0,2012-12-04 13:51:00
7:51 AM,42.1,37.0,82,30.23,10.0,East,5.8,-,N/A,,Clear,90,2012-12-04 14:51:00
8:51 AM,51.1,39.9,66,30.22,10.0,Calm,Calm,-,N/A,,Clear,0,2012-12-04 15:51:00
9:51 AM,57.0,39.9,53,30.20,10.0,North,4.6,-,N/A,,Clear,360,2012-12-04 16:51:00
10:51 AM,62.1,39.0,43,30.21,10.0,North,5.8,-,N/A,,Clear,10,2012-12-04 17:51:00
11:51 AM,64.9,37.9,37,30.20,10.0,Calm,Calm,-,N/A,,Clear,0,2012-12-04 18:51:00
12:51 PM,68.0,37.0,32,30.15,10.0,Calm,Calm,-,N/A,,Clear,0,2012-12-04 19:51:00
1:51 PM,69.1,35.1,29,30.14,10.0,WNW,5.8,-,N/A,,Clear,290,2012-12-04 20:51:00
2:51 PM,69.1,36.0,30,30.13,10.0,South,3.5,-,N/A,,Clear,190,2012-12-04 21:51:00
3:51 PM,68.0,35.1,30,30.12,10.0,SW,4.6,-,N/A,,Clear,230,2012-12-04 22:51:00
4:51 PM,66.0,37.0,34,30.12,10.0,North,9.2,-,N/A,,Clear,10,2012-12-04 23:51:00
5:51 PM,59.0,36.0,42,30.12,10.0,Calm,Calm,-,N/A,,Clear,0,2012-12-05 00:51:00
6:51 PM,53.1,35.1,50,30.15,10.0,East,4.6,-,N/A,,Clear,100,2012-12-05 01:51:00
7:51 PM,53.1,35.1,50,30.16,10.0,Calm,Calm,-,N/A,,Clear,0,2012-12-05 02:51:00
8:51 PM,48.0,33.1,56,30.16,10.0,Calm,Calm,-,N/A,,Clear,0,2012-12-05 03:51:00
9:51 PM,45.0,34.0,65,30.15,10.0,Calm,Calm,-,N/A,,Clear,0,2012-12-05 04:51:00
10:51 PM,43.0,33.1,68,30.14,10.0,Calm,Calm,-,N/A,,Clear,0,2012-12-05 05:51:00
11:51 PM,42.1,33.1,70,30.14,10.0,Calm,Calm,-,N/A,,Clear,0,2012-12-05 06:51:00